Location: Cincinnati Observatory Center
(39.1389°N, 84.4225°W)
Time: 05:47:56
(UTC-05:00)

Hubble Space Telescope - Visible Passes

Search period start: 16 January 2017 00:00
Search period end: 26 January 2017 00:00
Orbit: 538 x 542 km, 28.5° (Epoch: 15 January)

Date Brightness Start Highest point End Pass type
(mag) Time Alt. Az. Time Alt. Az. Time Alt. Az.
16 Jan 3.2 18:55:24 10° SW 18:58:06 17° S 19:00:47 10° SSE visible
17 Jan 3.3 18:45:34 10° SW 18:48:03 15° S 18:50:31 10° SSE visible
18 Jan 3.4 18:35:49 10° SW 18:37:59 14° SSW 18:40:09 10° SSE visible
19 Jan 3.6 18:26:14 10° SW 18:27:55 12° SSW 18:29:37 10° S visible
20 Jan 3.8 18:17:06 10° SSW 18:17:51 10° SSW 18:18:35 10° S visible
